Dominique Guillot

Olheiro-Chefe - Toulouse FC
3 Abr 2027
Sábado
Processo

Personalidade

Adaptabilidade (11) Ambição (1) Controvérsia (12) Lealdade (11) Pressão (9) Profissionalismo (10) Espírito Esportivo (10) Temperamento (18)

Perfil

Estilo de Treinamento Democrático
Licença Continental A
Determinação 12
Gestão de Pessoas 14
Motivação 13
Disciplina 6
Satisfação no Trabalho
50%
Fadiga
0%
Função Olheiro-Chefe
Salário 60.1K p/s
Contrato 14.03.2028

Desempenho

Comportamento Normal
Eficácia do Treinamento
31%
Desenvolvimento do Jogador
65%
Prevenção de Lesões
55%
Implementação Tática
65%

Eventos Recentes

Avaliou um jogador agora
Participou de uma reunião de recrutamento agora
Recomendou um alvo de transferência agora
Recomendou um alvo de transferência agora
Recomendou um alvo de transferência agora
Avaliou um jogador agora
Avaliou um jogador 7d atrás
Avaliou um jogador 7d atrás

Monitorando agora

142
Jogador Clube Status Habilidade Confiança Observado Última observação Último voto
Bill Antonio KV Mechelen Ativo 118 / 112 40% 9 02.04.2027 -
Matisse Samoise KAA Gent Ativo 127 / 121 40% 4 02.04.2027 -
Brian Figueroa Morelia Ativo 105 / 117 40% 2 02.04.2027 -
Tiago Araújo KAA Gent Ativo 126 / 118 40% 6 01.04.2027 -
Manu Pozo Torreense Ativo 120 / 121 40% 5 01.04.2027 -
Kyreece Lisbie Colchester United Ativo 111 / 116 40% 2 01.04.2027 -
Juan Bezerra Zamalek Ativo 123 / 128 40% 4 31.03.2027 -
Xavier Amaechi Plymouth Argyle Ativo 107 / 114 40% 1 31.03.2027 -
Brenner Santa Clara Ativo 117 / 113 40% 1 31.03.2027 -
Relebohile Mofokeng Orlando Pirates Ativo 127 / 136 40% 8 29.03.2027 -
Dries Fellaini KV Oostende Ativo 122 / 129 40% 7 29.03.2027 -
Aimé Omgba KAA Gent Ativo 122 / 118 40% 4 29.03.2027 -
Nacer Tielemans Mouscron Ativo 128 / 129 40% 5 26.03.2027 -
Ibrahim Karamoko Standard Liege Ativo 128 / 124 40% 2 26.03.2027 -
Thomas Claes Zulte Waregem Ativo 123 / 120 40% 7 24.03.2027 -
Malick Mbaye Zulte Waregem Ativo 111 / 113 40% 5 24.03.2027 -
Hugo Vetlesen Club Brugge Ativo 134 / 134 40% 2 24.03.2027 -
Mardochée Nzita Charleroi Ativo 114 / 113 40% 5 22.03.2027 -
Zakaria Ajoughlal Renaissance Ativo 105 / 100 40% 2 22.03.2027 -
Abdelkahar Kadri KAA Gent Rejeitado 123 / 120 40% 1 22.03.2027 Mais informações
Jeppe Erenbjerg Racing Genk Ativo 123 / 122 40% 2 20.03.2027 -
Daan Heymans Racing Genk Ativo 130 / 121 40% 4 20.03.2027 -
Daniel Kyerewaa Reading Ativo 117 / 115 40% 4 19.03.2027 -
Chris Lokesa Waasland-Beveren Ativo 117 / 124 40% 7 18.03.2027 -
Yira Sor Racing Genk Ativo 121 / 118 40% 4 18.03.2027 -
Maksim Kireev KV Mechelen Ativo 119 / 118 40% 4 18.03.2027 -
Helinho Toluca Ativo 128 / 132 40% 6 16.03.2027 -
Matteo Dams Club Brugge Ativo 129 / 124 40% 4 12.03.2027 -
Freddie Potts Club Brugge Ativo 137 / 133 40% 3 12.03.2027 -
Myron van Brederode KV Mechelen Ativo 120 / 120 40% 6 11.03.2027 -
Franco Díaz KV Oostende Ativo 119 / 127 40% 2 11.03.2027 -
Thomas Van Den Keybus Westerlo Ativo 111 / 118 40% 2 11.03.2027 -
Mohammad Mehdi Mohebi Persepolis Ativo 125 / 114 40% 4 09.03.2027 -
Haissem Hassan Bloemfontein Celtic Ativo 140 / 140 40% 1 05.03.2027 -
Serginho Al Wasl Ativo 130 / 128 40% 1 04.03.2027 -
Léandre Kuavita Waasland-Beveren Ativo 123 / 122 40% 3 27.02.2027 -
Facundo Pellistri Panathinaikos Ativo 140 / 135 40% 1 19.02.2027 -
Antoine Colassin Charleroi Ativo 119 / 122 40% 3 18.02.2027 -
César Huerta Pumas UNAM Ativo 133 / 124 40% 2 16.02.2027 -
Efraín Álvarez Guadalajara Ativo 126 / 135 40% 8 15.02.2027 -
Zakaria El Ouahdi Racing Genk Ativo 131 / 132 40% 3 15.02.2027 -
Marouan Azarkan Al Nasr Ativo 130 / 128 40% 1 15.02.2027 -
Sylvester Jasper Standard Liege Ativo 117 / 124 40% 4 14.02.2027 -
William Balikwisha OH Leuven Ativo 119 / 115 40% 2 14.02.2027 -
Thibaud Verlinden OH Leuven Ativo 132 / 118 40% 6 13.02.2027 -
Killian Sardella Anderlecht Ativo 130 / 133 40% 1 13.02.2027 -
Brian Rodríguez Club America Ativo 130 / 122 40% 3 10.02.2027 -
Diego Lainez Tigres Ativo 123 / 122 40% 2 04.02.2027 -
Arsène Elogo US Creteil Ativo 106 / 109 76% 1 11.01.2027 Aprovar
Gaël Nsombi US Creteil Perdido 102 / 101 76% 1 06.01.2027 -
Mao Hosoya Corinthians Rejeitado 134 / 135 67% 1 01.01.2027 Rejeitar
Federico Pereira Toluca Perdido 135 / 135 68% 1 01.01.2027 Aprovar
Sampson Dweh Viktoria Plzen Perdido 133 / 134 66% 1 01.01.2027 Aprovar
Igoh Ogbu Racing Genk Ativo 146 / 146 66% 1 01.01.2027 Aprovar
Marcel Ruiz Toluca Rejeitado 140 / 141 66% 1 01.01.2027 Rejeitar
Nicolás Ibáñez Cruz Azul Ativo 136 / 132 40% 7 31.12.2026 -
Ludovic Ajorque Stade Brestois Ativo 132 / 144 40% 10 31.12.2026 -
Fashion Sakala Al-Fayha Ativo 123 / 130 40% 5 31.12.2026 -
Hugo Cuypers Monterrey Ativo 119 / 122 40% 5 30.12.2026 -
Thibault Barbier Tours Ativo 127 / 117 40% 5 30.12.2026 -
Romeo Vermant Club Brugge Ativo 128 / 129 40% 1 30.12.2026 -
Habib Diallo FC Metz Ativo 124 / 121 40% 8 29.12.2026 -
Christian Kouamé Aris Thessaloniki Ativo 135 / 122 40% 1 29.12.2026 -
Yann Karamoh FC Metz Ativo 127 / 119 40% 2 28.12.2026 -
Jhojan Julio Queretaro Ativo 117 / 127 40% 4 28.12.2026 -
Nardin Mulahusejnović Vojvodina Ativo 117 / 129 40% 1 28.12.2026 -
Brayan Gil Baltika Ativo 132 / 112 40% 1 26.12.2026 -
Grejohn Kyei KAA Gent Ativo 120 / 124 40% 3 25.12.2026 -
Wesley Saïd RC Lens Ativo 132 / 134 40% 2 25.12.2026 -
Soufiane Rahimi Al Ain Ativo 145 / 136 40% 5 25.12.2026 -
Iqraam Rayners Mamelodi Sundowns Ativo 132 / 121 40% 9 24.12.2026 -
Luca Orellano Monterrey Ativo 130 / 126 40% 6 24.12.2026 -
Mousa Meunier KV Oostende Ativo 127 / 132 40% 5 24.12.2026 -
Josh Windass Wrexham Ativo 131 / 123 40% 1 23.12.2026 -
Aurélien Scheidler Charleroi Ativo 118 / 121 40% 1 23.12.2026 -
Diber Cambindo Leon Ativo 123 / 118 40% 5 22.12.2026 -
Moussa Dembélé Al-Ettifaq Ativo 136 / 117 40% 8 21.12.2026 -
Ezequiel Bullaude Santos Laguna Ativo 122 / 120 40% 1 21.12.2026 -
Florián Monzón Atlas Ativo 120 / 133 40% 10 18.12.2026 -
Fiete Arp OB Ativo 129 / 139 40% 2 17.12.2026 -
Tamerlan Musaev CSKA Moscow Ativo 112 / 124 40% 2 17.12.2026 -
Ismael Díaz Leon Ativo 129 / 127 40% 6 15.12.2026 -
Talisca Fenerbahce Ativo 139 / 150 40% 8 15.12.2026 -
Doğucan Haspolat Westerlo Ativo 122 / 114 40% 1 15.12.2026 -
Kyriani Sabbe Club Brugge Ativo 123 / 118 40% 4 13.12.2026 -
Łukasz Łakomy OH Leuven Ativo 124 / 121 40% 1 13.12.2026 -
Mehdi Ghayedi Al Nasr Ativo 135 / 124 40% 1 11.12.2026 -
Thierry Ambrose KV Kortrijk Ativo 124 / 125 40% 4 05.12.2026 -
Johannes Eggestein Austria Wien Ativo 131 / 132 40% 2 03.12.2026 -
Marco Pineda VfB Stuttgart Ativo 137 / 140 40% 1 03.12.2026 -
Nicolás Fernández Belgrano Ativo 123 / 116 40% 1 03.12.2026 -
Assad Al Hamlawi Universitatea Craiova Ativo 132 / 116 40% 4 29.11.2026 -
Denis Bouanga Los Angeles Football Club Ativo 134 / 120 40% 5 26.11.2026 -
Héctor Hernández Gil Vicente Ativo 129 / 115 40% 1 23.11.2026 -
Lucas Passerini Belgrano Ativo 123 / 111 40% 5 22.11.2026 -
Leo Ceara Kashima Antlers Ativo 133 / 135 40% 6 21.11.2026 -
Brian Gutiérrez Guadalajara Ativo 120 / 144 40% 1 18.11.2026 -
Takuya Ogiwara Urawa Reds Ativo 126 / 130 40% 1 14.11.2026 -
Tristan Degreef Anderlecht Ativo 120 / 128 40% 1 14.11.2026 -
Alejandro Piedrahita Deportivo Pereira Ativo 132 / 131 40% 4 11.11.2026 -
Haris Tabaković Red Bull Salzburg Ativo 142 / 130 40% 1 10.11.2026 -
Oli McBurnie Hull City Ativo 134 / 138 40% 2 09.11.2026 -
Achraf Bencharki Al Ahly Ativo 129 / 127 40% 1 09.11.2026 -
Ignacio Russo Tigre Ativo 128 / 137 40% 2 08.11.2026 -
Edwuin Cetré Estudiantes Ativo 134 / 114 40% 2 05.11.2026 -
Álex Arce Independiente Rivadavia Ativo 122 / 131 40% 2 03.11.2026 -
Diego Rossi Monterrey Ativo 131 / 143 40% 3 02.11.2026 -
Alex Luna Instituto Ativo 132 / 122 40% 1 02.11.2026 -
Ignacio Ramírez Newell's Old Boys Ativo 115 / 116 40% 3 28.10.2026 -
Ángel Correa River Plate Ativo 145 / 141 40% 1 28.10.2026 -
Dániel Gazdag Columbus Crew Ativo 121 / 135 40% 6 25.10.2026 -
Yuma Suzuki Kashima Antlers Ativo 139 / 124 40% 2 25.10.2026 -
Jefry Zapata Once Caldas Ativo 114 / 113 40% 1 23.10.2026 -
Antony Alonso Deportivo Riestra Ativo 113 / 108 40% 4 20.10.2026 -
Josh Sargent Toronto FC Ativo 131 / 130 40% 1 19.10.2026 -
Tomás Molina Argentinos Juniors Ativo 129 / 119 40% 2 17.10.2026 -
Manfred Ugalde Spartak Moscow Ativo 135 / 123 40% 1 17.10.2026 -
Ozziel Herrera Tigres Ativo 134 / 130 40% 3 14.10.2026 -
Timo Werner San Jose Earthquakes Ativo 125 / 116 40% 1 13.10.2026 -
Sebastián Villa Boca Juniors Ativo 127 / 118 40% 1 07.10.2026 -
Ilias Sebaoui Sint-Truiden Ativo 125 / 131 40% 1 07.10.2026 -
Enric Llansana Anderlecht Ativo 126 / 124 40% 1 07.10.2026 -
Henok Teklab OH Leuven Ativo 116 / 114 40% 1 06.10.2026 -
Guilherme Houston Dynamo Ativo 127 / 114 40% 1 03.10.2026 -
Rodrigo Aguirre Tigres Ativo 113 / 121 40% 1 29.09.2026 -
João Klauss LA Galaxy Ativo 120 / 125 40% 1 24.09.2026 -
Danylo Sikan Anderlecht Ativo 123 / 121 40% 3 18.09.2026 -
Tomás Chancalay Minnesota United FC Ativo 118 / 126 40% 1 18.09.2026 -
Enzo Copetti Rosario Central Ativo 128 / 112 40% 1 17.09.2026 -
Maximiliano Gómez Nacional Ativo 115 / 125 40% 1 17.09.2026 -
Matías Giménez Rojas Argentinos Juniors Ativo 117 / 120 40% 1 17.09.2026 -
Lucas Ocampos West Ham United Ativo 156 / 149 40% 1 08.09.2026 -
Cesar Corona Veracruz Ativo 142 / 142 40% 1 31.08.2026 -
Hamidou Makalou Stade Brestois Ativo 102 / 128 76% 1 17.08.2026 Aprovar
Bruno Barticciotto Talleres Ativo 121 / 128 40% 1 06.08.2026 -
Alan Velasco Boca Juniors Ativo 118 / 141 40% 1 06.08.2026 -
Alexis Vega Toluca Ativo 142 / 152 40% 1 06.08.2026 -
Liel Abada Charlotte Football Club Ativo 138 / 139 40% 1 05.08.2026 -
Jason Januzaj Mouscron Ativo 142 / 148 40% 1 05.08.2026 -
Kévin Denkey FC Cincinnati Ativo 116 / 125 40% 1 05.08.2026 -
Wessam Abou Ali Columbus Crew Ativo 120 / 135 40% 1 03.08.2026 -
Luis Vázquez Birmingham Ativo 126 / 125 40% 1 03.08.2026 -